Location: Domont
(49.0278°N, 2.3264°E)
Time: 03:44:31
(UTC+00:00)

H-2A R/B - Pass Details

Date: 30 May 2022
Orbit: 576 x 652 km, 98.5° (Epoch: 04 July)

Event Time Altitude Azimuth Distance (km) Brightness Sun altitude
Rises 21:42:38 0° 358° (N) 2,803 6.6 -13.8°
Reaches altitude 10° 21:45:49 10° 331° (NNW) 1,901 6.0 -14.0°
Maximum altitude 21:47:42 13° 303° (WNW) 1,710 5.3 -14.2°
Drops below altitude 10° 21:49:35 10° 275° (W) 1,902 5.0 -14.3°
Sets 21:52:47 0° 248° (WSW) 2,806 5.5 -14.6°
